[[{"header":{"parameterUnit":"m.s-1","parameterCategory":1,"la1":30.2991,"la2":30.254,"lo1":-89.0895,"lo2":-89.0444,"dy":0.0017,"dx":0.0017,"nx":28,"ny":28,"refTime":"2023-10-23T21:00:00:Z","depth":0,"parameterNumber":2,"parameterNumberName":"U-component_of_WINDS"},"data":[0,0,0,0,0,0,0,0,0,0,0,0,0,0,0,0,0,0,0,0,0,0,0,0,0,0,0,0,0,0,0,0,0,0,0,0,0,0,0,0,0,0,0,0,0,0,0,0,0,0,0,0,0,0,0,0,0,0,-7.8597,-7.8599,0,-7.8719,-7.8721,-7.8722,-7.8685,-7.8682,-7.868,-7.8677,-7.8793,-7.8799,-7.8804,0,0,0,0,0,0,0,0,0,0,0,0,0,-7.8325,-7.8331,-7.8597,-7.8599,-7.86,-7.8719,-7.8721,-7.8722,-7.8685,-7.8682,-7.8679,-7.8676,-7.8791,-7.8798,-7.8804,0,0,0,0,0,0,0,0,0,0,0,0,0,-7.8445,-7.8332,-7.8597,-7.8596,-7.8597,-7.8719,-7.8721,-7.8723,-7.8686,-7.8682,-7.8678,-7.8675,-7.8789,-7.8797,-7.8805,-7.8932,0,0,-7.883,-7.8834,0,0,0,0,0,0,0,0,-7.8438,-7.8455,-7.8595,-7.8596,-7.8598,-7.8683,-7.8667,-7.8793,-7.8687,-7.8652,-7.8677,-7.8673,-7.8759,-7.8769,-7.88,-7.8937,-7.8942,-7.8831,-7.8836,-7.8839,-7.8842,0,0,0,0,0,0,0,-7.843,-7.8449,-7.8645,-7.8597,-7.8599,-7.8588,-7.8601,-7.8691,-7.8725,-7.8655,-7.8652,-7.8668,-7.8759,-7.8793,-7.8803,-7.8944,-7.8831,-7.8838,-7.8843,-7.8846,-7.9193,-7.9197,0,0,0,0,0,0,-7.8422,-7.8443,-7.8641,-7.8649,-7.8507,-7.8596,-7.861,-7.8659,-7.8724,-7.873,-7.8671,-7.8666,-7.8781,-7.8793,-7.8807,-7.8959,-7.8839,-7.8847,-7.8852,-7.9188,-7.9194,-7.9198,0,0,0,0,0,0,-7.8416,-7.844,-7.8636,-7.8545,-7.857,-7.8605,-7.866,-7.8664,-7.8697,-7.8736,-7.8741,-7.8699,-7.8778,-7.8795,-7.8902,-7.8962,-7.8851,-7.8858,-7.9183,-7.919,-7.9196,-7.9264,0,0,0,0,0,0,-7.8408,-7.8438,-7.8487,-7.8547,-7.8575,-7.8731,-7.8664,-7.8669,-7.8713,-7.8707,-7.8764,-7.877,-7.8776,-7.889,-7.891,-7.8972,-7.8865,-7.9178,-7.9186,-7.9194,-7.9257,-7.9272,-7.9286,0,0,0,0,0,-7.8399,-7.8499,-7.849,-7.8514,-7.8638,-7.8735,-7.875,-7.8758,-7.8718,-7.8767,-7.8793,-7.8768,-7.8954,-7.8901,-7.8924,-7.8988,-7.9174,-7.9184,-7.9193,-7.925,-7.9269,-7.9286,0,0,0,0,0,0,-7.844,-7.8507,-7.8497,-7.862,-7.8673,-7.8728,-7.879,-7.8778,-7.884,-7.8831,-7.8836,-7.885,-7.8959,-7.8985,-7.8925,-7.9116,-7.9058,-7.9072,-7.9093,-7.9112,-7.9126,-7.9115,-7.8871,0,0,0,0,0,-7.8465,-7.8542,-7.8594,-7.8698,-7.8725,-7.8754,-7.8796,-7.8799,-7.8852,-7.8872,-7.8906,-7.8956,-7.9026,-7.9071,-7.9137,-7.9263,-7.9274,-7.9319,-7.9333,-7.9345,-7.9356,-7.9424,-7.9444,-7.923,-7.923,-7.923,0,0,-7.8514,-7.856,-7.8607,-7.8708,-7.8748,-7.8825,-7.8772,-7.8854,-7.8911,-7.8884,-7.8987,-7.9014,-7.9071,-7.9188,-7.9241,-7.9212,-7.9419,-7.9357,-7.9366,-7.9371,-7.9436,-7.9456,-7.9474,-7.9237,-7.9235,-7.9234,0,0,-7.8643,-7.8687,-7.8778,-7.8822,-7.8886,-7.8906,-7.8928,-7.8987,-7.9005,-7.911,-7.9092,-7.9159,-7.9279,-7.9321,-7.9357,-7.9509,-7.9488,-7.9531,-7.9604,-7.9671,-7.9688,-7.9703,-7.9755,-7.9773,-7.9543,-7.9543,-7.9543,0,-7.8694,-7.8811,-7.8825,-7.8911,-7.8955,-7.8941,-7.9033,-7.9074,-7.9155,-7.9185,-7.9154,-7.9307,-7.9344,-7.9471,-7.9508,-7.954,-7.9563,-7.9521,-7.9685,-7.97,-7.9714,-7.9763,-7.9783,-7.9547,-7.9547,-7.9546,-7.9546,0,-7.8871,-7.8953,-7.9019,-7.9103,-7.9156,-7.9244,-7.9269,-7.9321,-7.9321,-7.9343,-7.9451,-7.9497,-7.9572,-7.9604,-7.9602,-7.9731,-7.9712,-7.9684,-7.9624,-7.9739,-7.9785,-7.9804,-7.9554,-7.9552,-7.9551,-7.955,0,0,-7.9022,-7.9118,-7.9141,-7.918,-7.9254,-7.9316,-7.9405,-7.9483,-7.9526,-7.9585,-7.9657,-7.9763,-7.9739,-7.9781,-7.9785,-7.9844,-7.996,-7.9808,-7.981,-7.9832,-8.0103,-8.0121,-8.0143,-7.995,-7.9954,-7.9957,-8.0098,0,-7.9154,-7.9312,-7.933,-7.947,-7.9545,-7.9536,-7.9613,-7.9666,-7.9691,-7.9757,-7.9784,-7.9858,-7.9821,-7.9846,-7.9905,-7.9933,-8.0014,-7.9924,-8.0014,-8.0017,-7.9996,-8.0168,-8.0186,-8.0316,-8.0116,-8.0119,-8.0122,0,-7.9327,-7.9396,-7.9545,-7.9611,-7.9643,-7.9712,-7.9787,-7.9852,-7.9912,-7.9926,-7.9977,-7.9975,-8.0065,-8.0008,-8.0131,-8.007,-8.0109,-8.0129,-8.0134,-8.0138,-8.0072,-8.0173,-8.0358,-8.0376,-8.0151,-8.0148,-8.0146,0,-7.9419,-7.9549,-7.9655,-7.9689,-7.9769,-7.9818,-7.9853,-7.9911,-7.9958,-8.0023,-8.0053,-8.0128,-8.0167,-8.0224,-8.0242,-8.0199,-8.0364,-8.0308,-8.0376,-8.0375,-8.0406,-8.0402,-8.0596,-8.0439,-8.0438,-8.0438,-8.0438,0,-7.9562,-7.9652,-7.9698,-7.9762,-7.9864,-7.9885,-7.9984,-8.0016,-8.0069,-8.0138,-8.0135,-8.02,-8.0222,-8.0291,-8.0306,-8.0405,-8.0424,-8.0436,-8.0438,-8.0434,-8.0431,-8.0455,-8.0444,-8.0443,-8.0442,-8.0441,-8.044,0,-7.9678,-7.9713,-7.9828,-7.9897,-7.9917,-7.9989,-8.0047,-8.0109,-8.0136,-8.0224,-8.0246,-8.0288,-8.0369,-8.0395,-8.0491,-8.0502,-8.0617,-8.0613,-8.0597,-8.0596,-8.0661,-8.0653,-8.0871,-8.09,-8.0728,-8.073,-8.0731,0,-7.9764,-7.9835,-7.9914,-7.9963,-8.0001,-8.0079,-8.0129,-8.0153,-8.0205,-8.0282,-8.0334,-8.0416,-8.0482,-8.0612,-8.0649,-8.0724,-8.0719,-8.0791,-8.0729,-8.0724,-8.0716,-8.071,-8.0716,-8.08,-8.0802,-8.0803,-8.0805,0,-7.9913,-7.9929,-8.0002,-8.0083,-8.0144,-8.0208,-8.0269,-8.0308,-8.0342,-8.04,-8.0486,-8.0537,-8.064,-8.072,-8.0797,-8.0831,-8.0823,-8.0825,-8.0844,-8.0837,-8.0824,-8.0829,-8.0624,-8.0818,-8.0817,-8.0816,-8.0815,-8.0814,-8.0014,-8.0077,-8.0144,-8.0227,-8.0277,-8.0336,-8.0399,-8.0437,-8.0509,-8.0596,-8.0607,-8.0698,-8.076,-8.0863,-8.0902,-8.0973,-8.0952,-8.098,-8.0986,-8.0992,-8.0995,-8.0818,-8.0988,-8.0987,-8.0987,-8.0987,-8.0987,0,-8.016,-8.0205,-8.0281,-8.037,-8.0436,-8.043,-8.0498,-8.0552,-8.0634,-8.0694,-8.0761,-8.086,-8.0939,-8.0986,-8.1065,-8.1113,-8.1111,-8.1133,-8.1126,-8.1134,-8.1011,-8.0985,-8.1133,-8.1133,-8.1133,-8.1133,-8.1133,-8.1133,-8.0243,-8.0349,-8.0373,-8.0504,-8.0548,-8.064,-8.068,-8.0734,-8.0782,-8.0894,-8.0962,-8.0994,-8.1048,-8.1133,-8.1205,-8.1217,-8.1244,-8.1267,-8.1276,-8.1158,-8.1143,-8.1128,-8.1104,-8.1274,-8.1275,-8.1393,-8.1394,-8.1395]},{"header":{"parameterUnit":"m.s-1","parameterCategory":1,"la1":30.2991,"la2":30.254,"lo1":-89.0895,"lo2":-89.0444,"dy":0.0017,"dx":0.0017,"nx":28,"ny":28,"refTime":"2023-10-23T21:00:00:Z","depth":0,"parameterNumber":3,"parameterNumberName":"V-component_of_WINDS"},"data":[0,0,0,0,0,0,0,0,0,0,0,0,0,0,0,0,0,0,0,0,0,0,0,0,0,0,0,0,0,0,0,0,0,0,0,0,0,0,0,0,0,0,0,0,0,0,0,0,0,0,0,0,0,0,0,0,0,0,1.7308,1.7309,0,1.7364,1.7364,1.7365,1.7478,1.7481,1.7483,1.7485,1.7534,1.7534,1.7533,0,0,0,0,0,0,0,0,0,0,0,0,0,1.7295,1.7294,1.7308,1.7309,1.731,1.7364,1.7364,1.7365,1.7478,1.7481,1.7484,1.7486,1.7535,1.7534,1.7533,0,0,0,0,0,0,0,0,0,0,0,0,0,1.732,1.7294,1.7308,1.7373,1.7379,1.7363,1.7364,1.7365,1.7477,1.7481,1.7484,1.7488,1.7535,1.7534,1.7533,1.7456,0,0,1.7529,1.7528,0,0,0,0,0,0,0,0,1.7318,1.732,1.7362,1.7368,1.7375,1.7418,1.7378,1.7395,1.7477,1.744,1.7485,1.7489,1.7492,1.7495,1.7497,1.7459,1.7461,1.7529,1.7528,1.7527,1.7527,0,0,0,0,0,0,0,1.7317,1.7319,1.733,1.7363,1.7371,1.7397,1.7405,1.7382,1.7446,1.7443,1.7452,1.7457,1.7496,1.7498,1.7499,1.7461,1.7529,1.7528,1.7527,1.7526,1.7366,1.7362,0,0,0,0,0,0,1.7306,1.7316,1.7328,1.7332,1.7355,1.7395,1.7403,1.7401,1.7447,1.7457,1.7454,1.7462,1.7499,1.7501,1.7502,1.7418,1.7527,1.7526,1.7526,1.7369,1.7365,1.7361,0,0,0,0,0,0,1.7306,1.7306,1.7326,1.7326,1.7331,1.7391,1.7388,1.74,1.7402,1.7455,1.7466,1.7445,1.7502,1.7503,1.7468,1.7421,1.7526,1.7525,1.7373,1.7368,1.7363,1.7248,0,0,0,0,0,0,1.7305,1.7305,1.7278,1.7325,1.7331,1.7293,1.7385,1.7398,1.7401,1.7412,1.7449,1.7458,1.7504,1.7469,1.7467,1.7421,1.7524,1.7378,1.7371,1.7365,1.7256,1.7239,1.7225,0,0,0,0,0,1.7304,1.7241,1.7276,1.7277,1.7298,1.729,1.7293,1.7349,1.7396,1.7369,1.7403,1.7457,1.7426,1.7465,1.7463,1.7416,1.7381,1.7373,1.7365,1.7263,1.7243,1.7225,0,0,0,0,0,0,1.7184,1.7248,1.7288,1.7239,1.7258,1.7309,1.7276,1.7325,1.7329,1.7339,1.7407,1.7414,1.737,1.7389,1.7431,1.7346,1.7412,1.7404,1.7335,1.7316,1.7301,1.7298,1.7523,0,0,0,0,0,1.7152,1.7142,1.7198,1.7149,1.7158,1.7215,1.7213,1.7255,1.7277,1.7285,1.7317,1.7334,1.7329,1.7323,1.7321,1.7259,1.727,1.7226,1.7211,1.7198,1.719,1.7161,1.7143,1.7335,1.7335,1.7335,0,0,1.7086,1.712,1.7109,1.7126,1.7146,1.7133,1.7221,1.7202,1.7193,1.7281,1.7252,1.7275,1.7299,1.7251,1.7231,1.7265,1.7139,1.7187,1.7177,1.7176,1.7151,1.7132,1.7116,1.733,1.7331,1.7331,0,0,1.6959,1.6983,1.6947,1.6966,1.6997,1.7035,1.7026,1.707,1.709,1.7062,1.7129,1.7117,1.7106,1.7121,1.7127,1.7008,1.7059,1.7005,1.6924,1.6895,1.688,1.6867,1.6826,1.6811,1.6997,1.6996,1.6996,0,1.6872,1.6857,1.6921,1.69,1.6906,1.6989,1.6952,1.6966,1.6993,1.6995,1.7033,1.7023,1.7044,1.7003,1.6974,1.6975,1.6967,1.7002,1.6877,1.6865,1.6853,1.6816,1.68,1.699,1.6991,1.6991,1.6992,0,1.675,1.6738,1.6705,1.6733,1.6735,1.6705,1.6764,1.6758,1.68,1.6834,1.6805,1.6834,1.684,1.6833,1.6872,1.6797,1.6818,1.6865,1.6934,1.6828,1.6793,1.6779,1.6981,1.6983,1.6985,1.6986,0,0,1.6549,1.6614,1.6601,1.6616,1.6656,1.6648,1.6622,1.6632,1.6626,1.6641,1.6622,1.6612,1.6658,1.6664,1.6706,1.668,1.6587,1.6732,1.6733,1.6706,1.6508,1.6473,1.6455,1.662,1.6618,1.6616,1.6507,0,1.6432,1.6396,1.6453,1.6403,1.6394,1.6472,1.645,1.6472,1.6503,1.6499,1.6533,1.6526,1.6585,1.659,1.6568,1.6603,1.6548,1.6611,1.6603,1.6602,1.6596,1.6437,1.64,1.6295,1.6493,1.6491,1.6489,0,1.6292,1.6305,1.6254,1.6301,1.6299,1.6278,1.6293,1.6287,1.6313,1.6338,1.6347,1.6398,1.6375,1.644,1.641,1.6452,1.6452,1.6468,1.6465,1.6468,1.654,1.6437,1.6263,1.6248,1.6468,1.647,1.6472,0,1.6154,1.6157,1.6129,1.6138,1.6191,1.6175,1.6195,1.6225,1.6228,1.6239,1.6242,1.6248,1.6253,1.6257,1.6308,1.635,1.6272,1.6341,1.6292,1.6291,1.6273,1.6274,1.6099,1.6269,1.627,1.627,1.627,0,1.6019,1.5985,1.6068,1.605,1.6015,1.6081,1.6043,1.6071,1.6098,1.6086,1.6152,1.614,1.6208,1.6202,1.6241,1.6211,1.6212,1.6231,1.6242,1.6226,1.6224,1.6228,1.6238,1.6266,1.6267,1.6267,1.6268,0,1.5859,1.5913,1.5887,1.594,1.5952,1.5924,1.5969,1.5954,1.599,1.5975,1.5975,1.6031,1.6028,1.608,1.6085,1.6112,1.6065,1.6088,1.6057,1.6065,1.6014,1.6019,1.5837,1.5817,1.5998,1.5996,1.5995,0,1.5771,1.5748,1.5799,1.5798,1.5816,1.5812,1.5816,1.5879,1.588,1.5909,1.5891,1.5894,1.59,1.5891,1.5932,1.5937,1.5962,1.5897,1.5963,1.5948,1.5963,1.5965,1.5964,1.5884,1.5882,1.588,1.5878,0,1.561,1.5638,1.5643,1.5657,1.5661,1.5674,1.5691,1.5686,1.5755,1.5752,1.5752,1.5756,1.5765,1.5767,1.578,1.58,1.585,1.5858,1.5847,1.5831,1.5816,1.5826,1.6022,1.5862,1.5863,1.5865,1.5865,1.5866,1.5485,1.5469,1.5504,1.5507,1.5527,1.5543,1.5533,1.5569,1.557,1.5584,1.562,1.5613,1.5641,1.5665,1.568,1.5675,1.5707,1.569,1.5687,1.5682,1.5674,1.5815,1.5677,1.5678,1.5678,1.5679,1.5679,0,1.533,1.5356,1.5359,1.5383,1.5385,1.5435,1.5457,1.5455,1.545,1.5472,1.5478,1.5478,1.5481,1.5522,1.553,1.5518,1.5541,1.5518,1.552,1.5524,1.5644,1.5654,1.5499,1.5499,1.5499,1.5499,1.5499,1.5499,1.525,1.5226,1.5259,1.5246,1.5272,1.5269,1.5277,1.5291,1.531,1.5308,1.5312,1.534,1.537,1.5381,1.5385,1.5397,1.5398,1.5367,1.5386,1.5498,1.5515,1.5532,1.5542,1.5366,1.5366,1.5268,1.5267,1.5266]}]]